Satellite: NOAA-17
Catalog number: 27453
Epoch time:      12012.51767193
Element set:     560
Inclination:      098.3547 deg
RA of node:       047.3414 deg
Eccentricity:    0.0010788
Arg of perigee:   255.0015 deg
Mean anomaly:     104.9977 deg
Mean motion:   14.24381492 rev/day
Decay rate:        6.7e-07 rev/day^2
Epoch rev:           49645
Checksum:              313

Satellite: NOAA-18
Catalog number: 28654
Epoch time:      12012.49278144
Element set:      36
Inclination:      099.0262 deg
RA of node:       329.4559 deg
Eccentricity:    0.0013736
Arg of perigee:   234.5303 deg
Mean anomaly:     125.4563 deg
Mean motion:   14.11590997 rev/day
Decay rate:       3.74e-06 rev/day^2
Epoch rev:           34245
Checksum:              307

Satellite: NOAA-19
Catalog number: 33591
Epoch time:      12012.53653666
Element set:     225
Inclination:      098.8506 deg
RA of node:       314.3937 deg
Eccentricity:    0.0014875
Arg of perigee:   103.3054 deg
Mean anomaly:     256.9758 deg
Mean motion:   14.11278664 rev/day
Decay rate:       3.64e-06 rev/day^2
Epoch rev:           15091
Checksum:              314

/EX
SB KEPS @ AMSAT  $ORB12012.M
Orbital Elements  12012.MISC

HR AMSAT ORBITAL ELEMENTS FOR MANNED AND MISCELLANEOUS SATELLITES
FROM WA5QGD FORT WORTH,TX January 12, 2012
Send SUBSCRIBE KEPS/UNSUBSCRIBE KEPS to majordomo@amsat.org only
BID: ORB12012.M
TO ALL RADIO AMATEURS BT

Satellite: HUBBLE
Catalog number: 20580
Epoch time:      12010.70633230
Element set:     922
Inclination:      028.4699 deg
RA of node:       100.3063 deg
Eccentricity:    0.0003433
Arg of perigee:   159.0818 deg
Mean anomaly:     333.3663 deg
Mean motion:   15.02064828 rev/day
Decay rate:       1.70e-06 rev/day^2
Epoch rev:           99087
Checksum:              265

Satellite: ISS
Catalog number: 25544
Epoch time:      12012.91086523
Element set:     807
Inclination:      051.6417 deg
RA of node:       186.0353 deg
Eccentricity:    0.0023538
Arg of perigee:   274.8814 deg
Mean anomaly:     249.9623 deg
Mean motion:   15.59140841 rev/day
Decay rate:     1.3395e-04 rev/day^2
Epoch rev:           75364
Checksum:              306

Satellite: CO-58
Catalog number: 28895
Epoch time:      12011.58143083
Element set:    0071
Inclination:      097.9376 deg
RA of node:       244.5815 deg
Eccentricity:    0.0016774
Arg of perigee:   287.5849 deg
Mean anomaly:     072.3516 deg
Mean motion:   14.60439356 rev/day
Decay rate:       7.04e-06 rev/day^2
Epoch rev:           33065
Checksum:              331

Satellite: FALCON
Catalog number: 30776
Epoch time:      12012.83372754
Element set:     258
Inclination:      035.4316 deg
RA of node:       150.9701 deg
Eccentricity:    0.0001910
Arg of perigee:   068.4874 deg
Mean anomaly:     291.6046 deg
Mean motion:   15.06378620 rev/day
Decay rate:      3.545e-05 rev/day^2
Epoch rev:           26665
Checksum:              292

Satellite: MAST
Catalog number: 31126
Epoch time:      12011.98533321
Element set:    0368
Inclination:      097.8805 deg
RA of node:       032.2526 deg
Eccentricity:    0.0093078
Arg of perigee:   240.4625 deg
Mean anomaly:     118.7271 deg
Mean motion:   14.54004296 rev/day
Decay rate:       6.36e-06 rev/day^2
Epoch rev:           25142
Checksum:              276

Satellite: CAPE1
Catalog number: 31130
Epoch time:      12011.61097409
Element set:     367
Inclination:      097.8861 deg
RA of node:       028.3998 deg
Eccentricity:    0.0100883
Arg of perigee:   253.6924 deg
Mean anomaly:     105.3123 deg
Mean motion:   14.52729073 rev/day
Decay rate:       7.22e-06 rev/day^2
Epoch rev:           25089
Checksum:              294

Satellite: COMPASS
Catalog number: 32787
Epoch time:      12011.79716713
Element set:    0195
Inclination:      097.8234 deg
RA of node:       076.5247 deg
Eccentricity:    0.0014775
Arg of perigee:   212.2472 deg
Mean anomaly:     147.7825 deg
Mean motion:   14.83384832 rev/day
Decay rate:      1.917e-05 rev/day^2
Epoch rev:           20047
Checksum:              313

Satellite: AAUSAT2
Catalog number: 32788
Epoch time:      12011.73068127
Element set:    0186
Inclination:      097.8239 deg
RA of node:       076.7606 deg
Eccentricity:    0.0014324
Arg of perigee:   212.0917 deg
Mean anomaly:     147.9431 deg
Mean motion:   14.83651674 rev/day
Decay rate:      1.997e-05 rev/day^2
Epoch rev:           20048
Checksum:              312

Satellite: DO-64
Catalog number: 32789
Epoch time:      12011.77832975
Element set:    0202
Inclination:      097.8334 deg
RA of node:       078.2952 deg
Eccentricity:    0.0014536
Arg of perigee:   210.5223 deg
Mean anomaly:     149.5123 deg
Mean motion:   14.84721083 rev/day
Decay rate:      3.206e-05 rev/day^2
Epoch rev:           20051
Checksum:              288

Satellite: CO-66
Catalog number: 32791
Epoch time:      12011.73084363
Element set:    0190
Inclination:      097.8242 deg
RA of node:       076.3111 deg
Eccentricity:    0.0015154
Arg of perigee:   211.8104 deg
Mean anomaly:     148.2197 deg
Mean motion:   14.82911047 rev/day
Decay rate:      1.585e-05 rev/day^2
Epoch rev:           20040
Checksum:              270

